Weather History for KTBN - April, 2012

Change the Weather History Date:

Tuesday, April 10, 2012

  Actual Average (KAIZ) Record (KAIZ)
Temperature  
Mean Temperature 54 °F -  
Max Temperature 64 °F 64 °F - (-1)
Min Temperature 42 °F 42 °F - (-1)
Degree Days  
Heating Degree Days 10    
Growing Degree Days 4 (Base 50)    
Moisture  
Dew Point 32 °F    
Average Humidity 45    
Maximum Humidity 82    
Minimum Humidity 28    
Precipitation  
Precipitation 0.00 in - - ()
Sea Level Pressure  
Sea Level Pressure 30.15 in    
Wind  
Wind Speed 5 mph (NNW)    
Max Wind Speed 12 mph    
Max Gust Speed -    
Visibility 10 miles    
Events      
Averages and records for this station are not official NWS values.
T = Trace of Precipitation, MM = Missing Value Source: NWS Daily Summary

Daily Weather History Graph

Daily Weather History Graph

Search for Another Location

Airport or City:

Trip Planner

Search our weather history database for the weather conditions in past years. The results will help you decide how hot, cold, wet, or windy it might be!

Date:

Astronomy

Apr. 10, 2012 Rise Set
Actual Time 6:39 AM CDT 7:40 PM CDT
Civil Twilight 6:13 AM CDT 8:07 PM CDT
Nautical Twilight 5:41 AM CDT 8:38 PM CDT
Astronomical Twilight 5:08 AM CDT 9:12 PM CDT
Moon No Moon Rise 9:29 AM CDT (4/10)
Length of Visible Light 13h 54m
Length of Day
13h 00m
Waning Gibbous, 79% of the Moon is Illuminated
Apr 10
Waning Gibbous
Apr 13
Last Quarter
Apr 21
New
Apr 29
First Quarter
May 5
Full

Hourly Weather History & Observations

Time (CDT) Temp. Windchill Dew Point Humidity Pressure Visibility Wind Dir Wind Speed Gust Speed Precip Events Conditions
12:55 AM 55.8 °F - 38.7 °F 53% 30.08 in 10.0 mi Calm Calm - N/A   Overcast
1:55 AM 50.9 °F - 43.7 °F 76% 30.08 in 10.0 mi Calm Calm - N/A   Scattered Clouds
2:55 AM 53.1 °F - 40.3 °F 62% 30.07 in 10.0 mi NNW 4.6 mph - N/A   Scattered Clouds
3:55 AM 53.2 °F - 35.4 °F 51% 30.09 in 10.0 mi North 8.1 mph - N/A   Mostly Cloudy
4:55 AM 52.5 °F - 30.7 °F 43% 30.11 in 10.0 mi North 6.9 mph - N/A   Overcast
5:55 AM 51.3 °F - 28.2 °F 41% 30.14 in 10.0 mi North 5.8 mph - N/A   Overcast
6:55 AM 49.6 °F - 28.2 °F 44% 30.17 in 10.0 mi North 6.9 mph - N/A   Overcast
7:55 AM 49.3 °F - 29.3 °F 46% 30.20 in 10.0 mi NNE 5.8 mph - N/A   Overcast
8:55 AM 50.9 °F - 30.2 °F 45% 30.21 in 10.0 mi NNE 8.1 mph - N/A   Scattered Clouds
9:55 AM 52.9 °F - 30.0 °F 42% 30.21 in 10.0 mi Variable 5.8 mph - N/A   Partly Cloudy
10:55 AM 55.4 °F - 28.6 °F 36% 30.21 in 10.0 mi NNE 5.8 mph - N/A   Clear
11:55 AM 56.8 °F - 26.6 °F 31% 30.20 in 10.0 mi Variable 3.5 mph - N/A   Clear
12:55 PM 60.4 °F - 27.7 °F 29% 30.18 in 10.0 mi North 10.4 mph - N/A   Clear
1:55 PM 61.5 °F - 28.0 °F 28% 30.17 in 10.0 mi NNW 8.1 mph - N/A   Clear
2:55 PM 63.1 °F - 30.0 °F 29% 30.14 in 10.0 mi North 8.1 mph - N/A   Partly Cloudy
3:55 PM 64.0 °F - 31.1 °F 29% 30.13 in 10.0 mi NW 10.4 mph - N/A   Clear
4:55 PM 64.4 °F - 30.2 °F 28% 30.13 in 10.0 mi WNW 11.5 mph - N/A   Clear
5:55 PM 62.8 °F - 29.5 °F 29% 30.13 in 10.0 mi NW 11.5 mph - N/A   Clear
6:55 PM 59.9 °F - 30.7 °F 33% 30.12 in 10.0 mi NW 10.4 mph - N/A   Clear
7:55 PM 53.6 °F - 32.7 °F 45% 30.13 in 10.0 mi NW 4.6 mph - N/A   Clear
8:55 PM 51.8 °F - 32.5 °F 48% 30.15 in 10.0 mi NNW 3.5 mph - N/A   Mostly Cloudy
9:55 PM 48.2 °F - 32.9 °F 55% 30.16 in 10.0 mi Calm Calm - N/A   Clear
10:55 PM 45.1 °F 43.7 °F 33.8 °F 65% 30.16 in 10.0 mi NNW 3.5 mph - N/A   Clear
11:55 PM 42.3 °F - 37.2 °F 82% 30.17 in 10.0 mi Calm Calm - N/A   Clear